User: anonymous   Login
Location: Fort Wayne
(41.1310°N, 85.1290°W)
Time: 21:20:06
(UTC-04:00)
Language:

Tiros 1 despin weight - Orbit

View from above orbital plane
View from above orbital plane
View from above satellite
View from above satellite

Ground track
Ground track

The orbit data is extracted from the following two-line orbital elements,

1   115U 60002D   17118.74223900 +.00000190 +00000-0 +50028-4 0  9999
2   115 048.1680 021.4967 0035317 241.9826 117.7512 14.83061295042881
Epoch (UTC): 28 April 2017 17:48:49
Eccentricity: 0.0035317
inclination: 48.1680°
perigee height: 595 km
apogee height: 644 km
right ascension of ascending node: 21.4967°
argument of perigee: 241.9826°
revolutions per day: 14.83061295
mean anomaly at epoch: 117.7512°
orbit number at epoch: 4288

The dashed part of the orbit path shows where the satellite is in the earth's shadow,  

DLR